Total_Precipitation_Accumulation
0.00 0.01 0.04 0.03 0.02 0.02 0.01 0.02 0.02 0.02 0.02 0.02 0.02 0.02 0.02 0.03 0.03 0.04 0.07 0.08 0.08 0.10 0.13 0.12 0.12 0.16 0.19 0.21 0.27 0.34 0.38 0.28 0.23 0.22 0.16 0.17 0.21 0.13 0.08 0.10 0.25 0.33 0.16
0.00 0.01 0.03 0.03 0.02 0.02 0.02 0.02 0.02 0.03 0.03 0.02 0.03 0.02 0.02 0.02 0.02 0.03 0.03 0.03 0.03 0.05 0.08 0.09 0.12 0.14 0.15 0.16 0.24 0.31 0.32 0.29 0.27 0.26 0.19 0.14 0.18 0.11 0.06 0.08 0.19 0.28 0.19
0.00 0.00 0.02 0.03 0.02 0.02 0.02 0.02 0.02 0.05 0.06 0.03 0.03 0.03 0.02 0.01 0.01 0.01 0.01 0.01 0.01 0.03 0.03 0.05 0.10 0.14 0.18 0.21 0.22 0.24 0.24 0.25 0.29 0.30 0.29 0.31 0.15 0.12 0.11 0.09 0.15 0.17 0.18
0.00 0.00 0.01 0.02 0.03 0.05 0.03 0.04 0.05 0.07 0.08 0.05 0.03 0.04 0.02 0.01 0.01 0.02 0.02 0.02 0.01 0.02 0.02 0.03 0.05 0.10 0.17 0.22 0.26 0.23 0.18 0.19 0.22 0.22 0.24 0.34 0.24 0.17 0.19 0.15 0.18 0.13 0.14
0.00 0.00 0.02 0.03 0.06 0.09 0.08 0.08 0.09 0.10 0.10 0.06 0.04 0.04 0.02 0.02 0.01 0.01 0.02 0.03 0.02 0.02 0.02 0.03 0.04 0.08 0.14 0.16 0.17 0.15 0.12 0.16 0.21 0.13 0.14 0.23 0.26 0.21 0.17 0.21 0.20 0.12 0.09
0.00 0.01 0.05 0.06 0.09 0.14 0.15 0.16 0.19 0.16 0.14 0.10 0.06 0.05 0.05 0.04 0.02 0.01 0.03 0.07 0.04 0.01 0.01 0.03 0.05 0.09 0.14 0.17 0.16 0.15 0.17 0.17 0.11 0.12 0.15 0.23 0.31 0.21 0.18 0.20 0.15 0.20 0.13
0.01 0.03 0.05 0.07 0.11 0.19 0.19 0.16 0.25 0.27 0.26 0.15 0.08 0.06 0.05 0.04 0.01 0.01 0.05 0.07 0.07 0.04 0.01 0.01 0.03 0.05 0.08 0.13 0.14 0.16 0.20 0.14 0.17 0.20 0.20 0.26 0.23 0.20 0.19 0.16 0.21 0.33 0.27
0.02 0.02 0.03 0.06 0.11 0.19 0.22 0.25 0.36 0.39 0.33 0.19 0.08 0.09 0.07 0.06 0.02 0.01 0.03 0.04 0.07 0.07 0.03 0.01 0.01 0.01 0.02 0.05 0.09 0.14 0.19 0.23 0.23 0.16 0.14 0.20 0.24 0.24 0.18 0.17 0.21 0.34 0.37
0.01 0.03 0.03 0.04 0.07 0.15 0.25 0.30 0.39 0.44 0.38 0.23 0.09 0.10 0.09 0.06 0.02 0.01 0.02 0.02 0.02 0.02 0.02 0.02 0.01 0.00 0.00 0.01 0.04 0.10 0.16 0.20 0.18 0.09 0.05 0.11 0.20 0.18 0.15 0.16 0.19 0.29 0.37
0.00 0.01 0.02 0.03 0.05 0.13 0.20 0.30 0.36 0.45 0.57 0.35 0.12 0.08 0.07 0.06 0.04 0.01 0.01 0.00 0.01 0.01 0.01 0.01 0.01 0.00 0.00 0.00 0.01 0.04 0.07 0.11 0.10 0.04 0.03 0.08 0.14 0.12 0.11 0.14 0.18 0.18 0.23
0.01 0.00 0.01 0.01 0.03 0.09 0.14 0.18 0.29 0.38 0.51 0.38 0.14 0.06 0.05 0.06 0.06 0.01 0.01 0.00 0.02 0.02 0.00 0.00 0.00 0.00 0.00 0.00 0.00 0.01 0.01 0.02 0.02 0.01 0.01 0.05 0.06 0.05 0.06 0.06 0.06 0.08 0.12
0.01 0.00 0.00 0.00 0.01 0.04 0.08 0.14 0.22 0.25 0.32 0.28 0.15 0.04 0.08 0.20 0.14 0.02 0.01 0.01 0.01 0.01 0.00 0.00 0.00 0.00 0.00 0.00 0.00 0.00 0.00 0.00 0.00 0.01 0.01 0.03 0.02 0.01 0.01 0.01 0.00 0.01 0.02
0.03 0.02 0.01 0.01 0.00 0.03 0.11 0.18 0.23 0.27 0.33 0.41 0.40 0.12 0.08 0.15 0.09 0.01 0.00 0.00 0.01 0.00 0.00 0.00 0.00 0.00 0.00 0.00 0.00 0.00 0.00 0.00 0.00 0.00 0.01 0.01 0.00 0.00 0.00 0.00 0.00 0.00 0.00
0.12 0.08 0.06 0.03 0.02 0.01 0.05 0.16 0.27 0.31 0.39 0.46 0.43 0.16 0.05 0.07 0.04 0.01 0.00 0.00 0.00 0.00 0.00 0.00 0.00 0.00 0.00 0.00 0.00 0.00 0.00 0.00 0.00 0.00 0.01 0.02 0.02 0.01 0.01 0.01 0.01 0.00 0.00
0.19 0.21 0.21 0.15 0.09 0.06 0.05 0.08 0.12 0.12 0.22 0.43 0.44 0.18 0.08 0.05 0.04 0.03 0.00 0.00 0.00 0.00 0.00 0.00 0.00 0.00 0.00 0.00 0.00 0.00 0.00 0.00 0.00 0.00 0.03 0.02 0.02 0.03 0.04 0.04 0.03 0.01 0.00
0.17 0.25 0.30 0.32 0.28 0.20 0.12 0.08 0.07 0.05 0.12 0.15 0.11 0.05 0.06 0.06 0.06 0.06 0.03 0.01 0.00 0.00 0.00 0.00 0.00 0.00 0.00 0.00 0.00 0.00 0.00 0.00 0.00 0.00 0.02 0.04 0.02 0.02 0.03 0.04 0.04 0.04 0.03
0.17 0.22 0.30 0.35 0.36 0.32 0.26 0.23 0.15 0.11 0.09 0.06 0.04 0.02 0.03 0.05 0.09 0.09 0.05 0.03 0.00 0.00 0.00 0.00 0.00 0.00 0.00 0.00 0.00 0.00 0.00 0.00 0.00 0.00 0.00 0.03 0.05 0.02 0.03 0.06 0.08 0.06 0.07
0.21 0.20 0.26 0.29 0.32 0.37 0.40 0.42 0.34 0.23 0.15 0.10 0.08 0.04 0.02 0.04 0.08 0.11 0.08 0.05 0.04 0.02 0.01 0.01 0.00 0.00 0.00 0.00 0.01 0.00 0.00 0.00 0.00 0.00 0.00 0.01 0.04 0.05 0.06 0.07 0.11 0.12 0.12
0.24 0.22 0.22 0.25 0.28 0.34 0.42 0.46 0.42 0.32 0.21 0.15 0.12 0.06 0.05 0.06 0.10 0.15 0.18 0.14 0.11 0.07 0.04 0.02 0.00 0.00 0.00 0.01 0.01 0.01 0.01 0.00 0.00 0.00 0.00 0.00 0.01 0.01 0.05 0.05 0.05 0.08 0.13
0.24 0.24 0.24 0.26 0.26 0.29 0.33 0.39 0.39 0.30 0.23 0.21 0.16 0.15 0.18 0.24 0.27 0.31 0.38 0.34 0.24 0.18 0.15 0.09 0.05 0.03 0.01 0.01 0.00 0.00 0.01 0.00 0.00 0.00 0.00 0.00 0.01 0.00 0.00 0.01 0.03 0.03 0.05
0.18 0.17 0.18 0.23 0.26 0.24 0.23 0.27 0.30 0.26 0.27 0.29 0.31 0.34 0.36 0.37 0.41 0.50 0.61 0.62 0.55 0.43 0.36 0.30 0.23 0.21 0.12 0.02 0.03 0.04 0.02 0.01 0.00 0.00 0.00 0.00 0.00 0.00 0.00 0.00 0.02 0.06 0.09
0.05 0.09 0.13 0.14 0.17 0.16 0.17 0.22 0.30 0.35 0.37 0.45 0.56 0.59 0.57 0.50 0.49 0.54 0.64 0.67 0.60 0.55 0.48 0.39 0.37 0.41 0.28 0.11 0.13 0.18 0.12 0.09 0.03 0.00 0.00 0.00 0.00 0.00 0.00 0.00 0.00 0.02 0.06
0.02 0.02 0.06 0.10 0.13 0.12 0.19 0.38 0.64 0.87 0.93 0.91 0.90 1.00 1.03 0.90 0.73 0.68 0.68 0.71 0.68 0.69 0.63 0.51 0.45 0.45 0.39 0.27 0.20 0.28 0.24 0.19 0.15 0.05 0.01 0.01 0.01 0.00 0.00 0.00 0.01 0.01 0.01
0.01 0.01 0.02 0.05 0.10 0.13 0.29 0.60 0.98 1.29 1.37 1.35 1.45 1.47 1.47 1.35 1.15 1.05 0.96 0.92 0.79 0.71 0.63 0.53 0.45 0.44 0.47 0.42 0.34 0.27 0.23 0.19 0.22 0.18 0.07 0.02 0.01 0.01 0.00 0.00 0.00 0.02 0.02
0.06 0.06 0.07 0.11 0.23 0.39 0.53 0.68 0.95 1.14 1.24 1.36 1.52 1.66 1.75 1.85 1.79 1.65 1.46 1.19 0.97 0.82 0.72 0.65 0.58 0.53 0.51 0.46 0.38 0.28 0.22 0.20 0.14 0.16 0.17 0.11 0.05 0.02 0.01 0.00 0.00 0.00 0.01
0.17 0.19 0.19 0.25 0.34 0.41 0.51 0.64 0.76 0.85 1.01 1.18 1.34 1.49 1.60 1.70 1.69 1.62 1.43 1.14 0.88 0.72 0.67 0.68 0.67 0.63 0.58 0.50 0.38 0.29 0.25 0.21 0.17 0.19 0.19 0.24 0.26 0.10 0.02 0.02 0.01 0.00 0.00